Terminal Aerodrome Forecast
Issued by NWS

Home | Current Version | Previous Version | Graphics & Text | Print | Product List | Glossary On
Versions: 1 2 3 4 5 6 7 8 9 10 11 12 13 14 15 16 17 18 19 20 21 22 23 24
000
FTUS43 KBIS 142106 AAB
TAFDIK
TAF AMD
KDIK 142106Z 1421/1518 14013G18KT P6SM VCSH BKN110
     FM150100 13010KT P6SM OVC110
     FM150600 15007KT P6SM -SHRA OVC090
     FM151000 14007KT P6SM -SHRA OVC060
     FM151300 15006KT P6SM VCSH BKN015 OVC035=

USA.gov is the U.S. government's official web portal to all federal, state and local government web resources and services.